Location: Chinna Viriv?da
(16.5281°N, 81.0493°E)
Time: 15:05:42
(UTC+00:00)

ATLAS 3B R/B - Pass Details

Date: 14 April 2026
Orbit: 937 x 1257 km, 63.8° (Epoch: 11 May)

Event Time Altitude Azimuth Distance (km) Brightness Sun altitude
Rises 21:58:06 0° 338° (NNW) 4,103 5.8 -33.6°
Reaches altitude 10° 22:00:56 10° 340° (NNW) 3,100 5.1 -33.0°
Maximum altitude 22:08:20 75° 65° (ENE) 1,153 2.8 -31.3°
Drops below altitude 10° 22:15:08 10° 150° (SSE) 2,863 5.0 -29.8°
Sets 22:17:40 0° 152° (SSE) 3,772 5.7 -29.2°
